Hourly Data Report for September 02, 2017

All times are specified in Local Standard Time (LST). Add 1 hour to adjust for Daylight Saving Time where and when it is observed.

TORONTO INTL A
ONTARIO

43°40'36.000" N
79°37'50.000" W
173.40 m
6158731
71624
YYZ

Download Data

Hourly Data (September 2017)
Hourly Data Report for September 2, 2017
Temp Definition
°C
Dew Point Temp Definition
°C
Rel Hum Definition
%
Wind Dir Definition
10's deg

Wind Spd Definition
km/h
Visibility Definition
km
Stn Press Definition
kPa
Hmdx Definition


Wind Chill Definition


Weather Definition


TIME
00:00 Legend Double Dagger 9.8 6.2 78 31 5 24.1 100.22     LegendNANA
01:00 Legend Double Dagger 8.9 5.9 81 28 8 24.1 100.23     Mainly Clear
02:00 Legend Double Dagger 9.5 6.3 80 32 7 24.1 100.20     LegendNANA
03:00 Legend Double Dagger 8.9 6.1 83 1 12 24.1 100.14     LegendNANA
04:00 Legend Double Dagger 8.5 5.9 83 2 5 24.1 100.09     Mainly Clear
05:00 Legend Double Dagger 8.5 5.7 83 2 7 24.1 100.09     LegendNANA
06:00 Legend Double Dagger 7.6 5.4 86 3 9 24.1 100.10     LegendNANA
07:00 Legend Double Dagger 10.2 6.9 80 2 6 24.1 100.08     Mainly Clear
08:00 Legend Double Dagger 13.8 8.7 71 11 4 24.1 100.08     LegendNANA
09:00 Legend Double Dagger 16.6 8.5 58 12 18 24.1 100.07     LegendNANA
10:00 Legend Double Dagger 17.2 8.7 57 12 27 24.1 100.04     Mainly Clear
11:00 Legend Double Dagger 18.4 7.6 49 10 24 24.1 99.98     LegendNANA
12:00 Legend Double Dagger 18.9 7.3 47 9 26 24.1 99.92     LegendNANA
13:00 Legend Double Dagger 19.2 7.7 47 10 24 24.1 99.83     Mainly Clear
14:00 Legend Double Dagger 20.0 9.2 49 13 17 24.1 99.76     LegendNANA
15:00 Legend Double Dagger 18.1 8.4 53 10 19 24.1 99.68     LegendNANA
16:00 Legend Double Dagger 17.4 9.4 59 9 23 24.1 99.61     Mostly Cloudy
17:00 Legend Double Dagger 17.3 10.1 62 8 23 24.1 99.56     LegendNANA
18:00 Legend Double Dagger 17.2 11.0 67 10 17 24.1 99.51     LegendNANA
19:00 Legend Double Dagger 17.4 12.2 72 12 19 24.1 99.48     Cloudy
20:00 Legend Double Dagger 16.7 11.7 72 18 10 24.1 99.48     LegendNANA
21:00 Legend Double Dagger 16.6 11.5 72 16 11 24.1 99.46     LegendNANA
22:00 Legend Double Dagger 16.1 11.9 76 19 14 24.1 99.40     Cloudy
23:00 Legend Double Dagger 16.0 12.4 79 18 8 24.1 99.31     LegendNANA

Notes on Data Quality.

Legend

  • E = Estimated
  • M = Missing
  • NA = Not Available
  • ‡ = Partner data that is not subject to review by the National Climate Archives
Date modified: